EW9525 Weather Reports


time (UTC)temp
F
wind
direction
speed
knots
gust
knots
rain 1hr
in
rain 24hr
in
rain mn
in
humidity
%
barometer
mb
20260831004535 87 129 0.9 1.7 0.00 0.00 0.00 49 1006.5
20260831003037 89 146 0.9 3.5 0.00 0.00 0.00 44 1006.5
20260831001534 90 150 2.6 5.2 0.00 0.00 0.00 42 1006.6
20260831000037 90 164 2.6 5.2 0.00 0.00 0.00 41 1006.7
20260830234537 91 146 3.5 5.2 0.00 0.00 0.00 38 1006.7
20260830233036 92 130 4.3 7.8 0.00 0.00 0.00 38 1006.4
20260830231531 92 94 2.6 5.2 0.00 0.00 0.00 37 1006.3
20260830230033 92 76 3.5 6.1 0.00 0.00 0.00 37 1006.1
20260830224530 92 73 4.3 8.7 0.00 0.00 0.00 36 1006.1
20260830223030 92 84 4.3 7.0 0.00 0.00 0.00 40 1006.1
20260830221537 91 76 2.6 5.2 0.00 0.00 0.00 40 1005.9
20260830220029 92 67 4.3 7.8 0.00 0.00 0.00 36 1005.8
20260830214528 92 77 6.1 9.6 0.00 0.00 0.00 36 1005.8
20260830213033 91 75 3.5 6.1 0.00 0.00 0.00 37 1005.8
20260830211527 92 75 2.6 6.1 0.00 0.00 0.00 36 1005.8
20260830210027 93 77 0.0 4.3 0.00 0.00 0.00 31 1006.0
20260830204526 94 274 2.6 7.8 0.00 0.00 0.00 32 1006.0
20260830203023 94 252 1.7 5.2 0.00 0.00 0.00 30 1006.2
20260830201522 93 313 2.6 7.0 0.00 0.00 0.00 32 1006.2
20260830200020 93 271 1.7 6.1 0.00 0.00 0.00 30 1006.5
20260830194518 92 335 1.7 11.3 0.00 0.00 0.00 30 1006.5
20260830193017 92 292 3.5 7.0 0.00 0.00 0.00 29 1006.5
20260830191517 91 322 1.7 7.0 0.00 0.00 0.00 33 1006.4
20260830190014 90 225 2.6 7.0 0.00 0.00 0.00 35 1006.6
20260830184511 89 279 0.9 6.1 0.00 0.00 0.00 40 1006.6
20260830183008 89 317 1.7 7.8 0.00 0.00 0.00 36 1006.7
20260830181506 88 1 4.3 8.7 0.00 0.00 0.00 37 1006.8
20260830180003 87 14 5.2 8.7 0.00 0.00 0.00 38 1007.0
20260830174505 87 313 4.3 8.7 0.00 0.00 0.00 39 1007.3
20260830173126 87 314 4.3 7.8 0.00 0.00 0.00 37 1007.5
20260830171605 86 290 4.3 8.7 0.00 0.00 0.00 39 1007.7
20260830170054 85 323 1.7 4.3 0.00 0.00 0.00 43 1007.9
20260830164551 84 261 0.9 7.0 0.00 0.00 0.00 45 1007.8
20260830163050 82 295 4.3 9.6 0.00 0.00 0.00 49 1007.7
20260830161600 80 321 3.5 8.7 0.00 0.00 0.00 53 1007.5
20260830160040 77 297 2.6 7.0 0.00 0.00 0.00 61 1007.6
20260830154540 77 329 4.3 7.8 0.00 0.00 0.00 60 1007.2
20260830153041 77 295 3.5 7.0 0.00 0.00 0.00 61 1007.6
20260830151542 77 297 4.3 8.7 0.00 0.00 0.00 60 1007.2
20260830150037 76 304 3.5 7.0 0.00 0.00 0.00 62 1007.6
20260830144547 76 276 3.5 6.1 0.00 0.00 0.00 63 1007.5
20260830143032 74 296 5.2 10.4 0.00 0.00 0.00 65 1006.6
20260830141531 75 296 5.2 9.6 0.00 0.00 0.00 63 1006.8
20260830140031 74 289 5.2 9.6 0.00 0.00 0.00 66 1006.8
20260830134530 72 289 7.0 10.4 0.00 0.00 0.00 70 1006.8
20260830133031 71 297 3.5 6.1 0.00 0.00 0.00 74 1007.0
20260830131527 68 234 0.0 2.6 0.00 0.00 0.00 82 1006.9
20260830130025 67 233 0.0 4.3 0.00 0.00 0.00 82 1006.7
20260830124533 67 313 4.3 5.2 0.00 0.00 0.00 83 1006.4
20260830123023 66 275 2.6 7.0 0.00 0.00 0.00 86 1006.2
20260830121522 66 284 4.3 7.0 0.00 0.00 0.00 85 1006.0
20260830120021 66 286 2.6 5.2 0.00 0.00 0.00 84 1005.9
20260830114520 66 286 2.6 7.0 0.00 0.00 0.00 84 1005.8
20260830113023 66 295 2.6 6.1 0.00 0.00 0.00 84 1005.7
20260830111520 66 295 1.7 6.1 0.00 0.00 0.00 84 1005.7
20260830110020 66 313 2.6 4.3 0.00 0.00 0.00 84 1005.5
20260830104518 66 287 0.9 2.6 0.00 0.00 0.00 83 1005.3
20260830103029 66 274 0.0 3.5 0.00 0.00 0.00 83 1005.4
20260830101516 67 241 1.7 4.3 0.00 0.00 0.00 81 1005.6
20260830100013 67 269 2.6 5.2 0.00 0.00 0.00 80 1005.5
20260830094512 67 255 2.6 5.2 0.00 0.00 0.00 80 1005.7
20260830093015 67 259 2.6 5.2 0.00 0.00 0.00 79 1005.7
20260830091510 68 274 2.6 5.2 0.00 0.00 0.00 78 1005.5
20260830090008 68 281 1.7 6.1 0.00 0.00 0.00 78 1005.7
20260830084507 68 274 1.7 3.5 0.00 0.00 0.00 79 1005.6
20260830083006 68 266 2.6 3.5 0.00 0.00 0.00 79 1005.6
20260830081506 69 274 0.0 0.9 0.00 0.00 0.00 77 1005.6
20260830080004 69 276 0.0 0.0 0.00 0.10 0.00 78 1005.5
20260830074504 69 205 0.0 0.0 0.00 0.10 0.00 76 1005.5
20260830073101 70 205 0.0 0.0 0.00 0.10 0.00 75 1005.5
20260830071558 71 29 0.0 1.7 0.00 0.10 0.00 74 1005.2
20260830070054 72 34 1.7 3.5 0.00 0.24 0.00 71 1005.7
20260830064605 73 11 4.3 8.7 0.00 0.24 0.00 69 1005.5
20260830063050 73 358 7.0 13.0 0.00 0.24 0.00 68 1005.6
20260830061549 74 354 8.7 16.5 0.00 0.24 0.00 67 1005.4
20260830060049 74 354 9.6 13.9 0.00 0.24 0.00 69 1005.4
20260830054545 73 337 11.3 15.6 0.00 0.24 0.00 70 1005.4
20260830053042 74 350 13.0 20.0 0.00 0.24 0.00 68 1005.9
20260830051542 76 316 15.6 23.5 0.00 0.24 0.00 63 1006.1
20260830050035 77 324 13.0 26.1 0.00 0.24 0.24 60 1006.0
20260830044535 79 321 11.3 20.9 0.00 0.24 0.24 57 1005.3
20260830043034 80 80 0.9 3.5 0.00 0.24 0.24 60 1003.9
20260830041534 80 73 1.7 2.6 0.00 0.24 0.24 59 1003.9
20260830040034 78 71 0.0 0.0 0.00 0.24 0.24 62 1003.9
20260830034532 78 59 0.0 0.9 0.00 0.24 0.24 65 1004.1
20260830033031 79 82 1.7 2.6 0.00 0.24 0.24 62 1004.0
20260830031532 80 83 2.6 3.5 0.00 0.24 0.24 63 1003.9
20260830030035 80 90 2.6 2.6 0.00 0.24 0.24 62 1004.1
20260830024533 80 75 1.7 2.6 0.00 0.24 0.24 64 1004.3
20260830023035 80 67 1.7 2.6 0.00 0.24 0.24 64 1004.2
20260830021532 81 70 1.7 2.6 0.00 0.24 0.24 64 1004.1
20260830020130 81 50 1.7 3.5 0.00 0.24 0.24 64 1003.9
20260830014535 82 63 0.9 3.5 0.00 0.24 0.24 63 1003.8
20260830013027 83 51 1.7 2.6 0.00 0.24 0.24 62 1003.8
20260830011529 85 59 2.6 3.5 0.00 0.24 0.24 58 1003.7
20260830010025 86 75 1.7 2.6 0.00 0.24 0.24 57 1004.0